Wind_Speed
37 38 39 40 40 40 40 41 41 41 42 42 43 45 46 48 50 52 53 55 56 58 58 59 59 59 59 59 59 59 59 61 60 61 63 63 61 59 56 53 51 48 46
38 39 40 41 42 42 43 44 45 45 46 45 46 48 50 51 53 54 56 56 57 58 58 58 58 58 58 57 57 58 60 61 62 60 58 55 52 48 44 42 40 38 36
39 40 42 43 44 45 47 48 48 49 49 49 50 51 52 54 55 56 56 57 57 58 57 57 57 56 56 57 58 59 60 60 58 54 49 45 42 38 36 34 33 32 31
43 44 45 45 47 49 50 51 52 51 51 51 52 53 54 55 56 56 56 56 56 56 56 55 55 55 56 57 58 59 57 54 50 44 39 36 34 34 33 32 31 30 29
45 46 46 48 50 51 53 53 52 52 53 53 54 55 56 56 56 56 55 55 55 55 55 55 55 55 57 57 56 54 51 46 40 35 33 32 32 33 34 33 31 30 29
46 47 48 50 51 52 52 52 52 52 53 54 55 55 55 55 55 55 55 54 54 54 54 54 55 56 55 53 50 47 42 37 33 30 30 31 32 33 32 32 31 30 28
46 48 50 51 51 51 51 52 53 53 53 54 54 54 54 54 54 54 54 53 53 52 53 54 54 52 49 45 42 38 35 31 29 30 31 32 31 30 30 29 29 28 27
47 49 50 50 51 51 51 52 52 52 52 53 53 54 53 53 53 53 52 52 51 52 52 51 48 45 40 37 33 31 29 29 29 30 30 29 28 26 26 25 24 24 24
48 49 49 49 50 50 50 50 51 51 51 52 52 52 51 50 50 50 50 50 50 50 48 44 40 36 32 28 25 25 25 26 28 27 26 24 23 22 22 22 22 22 22
46 47 47 48 48 49 49 50 50 49 49 49 49 49 48 48 48 49 48 47 46 44 41 37 33 28 24 21 20 20 22 23 23 22 21 21 21 21 20 21 21 20 20
45 46 47 47 48 48 47 47 46 46 46 46 46 46 46 46 46 44 42 40 38 35 33 29 25 20 16 16 17 18 19 19 17 17 18 19 20 20 20 19 19 19 19
44 44 44 43 43 43 43 43 43 43 44 44 44 44 43 42 40 37 35 32 30 28 25 21 17 13 12 14 16 16 16 15 15 16 17 18 19 19 19 19 19 19 18
40 39 39 39 39 40 40 41 41 42 42 41 40 39 37 35 33 30 27 25 23 20 16 12 9 8 10 12 13 13 12 13 14 15 17 18 19 19 19 19 19 18 18
35 36 37 37 38 38 38 38 38 38 37 36 34 33 31 29 27 24 21 19 16 11 8 5 5 6 9 10 10 10 11 12 13 15 17 18 18 18 18 17 17 17 16
34 34 35 36 35 35 35 34 33 32 31 30 28 27 25 23 21 18 16 12 7 4 2 1 2 5 6 7 8 9 11 12 14 16 17 18 18 18 17 17 17 18 17
32 33 33 32 31 30 29 28 27 25 24 22 21 20 18 17 14 11 8 5 4 4 3 2 3 4 6 8 10 11 13 14 16 18 19 19 20 20 20 20 21 22 21
30 29 28 27 25 24 23 21 19 17 16 15 14 12 11 9 5 2 5 8 8 7 5 4 6 7 10 11 13 14 15 17 19 20 21 22 23 23 23 23 24 25 25
25 24 22 21 19 17 15 13 12 11 10 8 7 6 3 2 6 10 12 11 9 7 7 8 9 11 13 14 15 16 17 19 21 23 24 25 26 26 26 25 25 26 26
20 18 16 14 12 10 8 7 6 5 5 4 4 5 7 10 13 14 13 11 9 9 9 11 13 14 15 15 16 17 18 20 22 24 25 27 27 28 28 27 27 27 27
14 12 10 7 6 4 4 3 3 4 5 6 8 11 13 15 15 14 12 11 10 11 12 14 15 15 16 17 17 18 19 20 22 24 25 27 28 29 29 29 29 28 27
11 9 7 6 5 5 5 6 7 8 10 11 13 14 15 15 15 13 12 12 12 13 14 15 15 16 16 17 18 18 19 20 21 23 24 26 27 28 29 29 29 28 27
12 10 9 9 9 9 10 11 12 12 13 14 15 16 16 15 15 14 13 13 13 14 15 15 15 15 16 16 17 18 19 19 20 21 22 24 25 26 27 28 28 28 28
14 13 12 12 12 13 14 14 15 15 15 16 16 16 15 15 15 14 14 14 14 14 15 15 14 14 14 15 16 17 17 18 19 19 20 21 22 23 24 25 25 25 26
16 15 15 15 15 16 16 16 16 16 16 15 15 15 15 14 14 14 14 14 14 14 14 14 13 13 13 14 14 15 16 16 17 18 18 19 20 21 22 22 22 22 23
17 16 16 16 16 16 16 16 16 16 15 14 14 13 13 13 13 12 12 13 13 13 13 13 12 12 12 12 13 13 14 15 16 16 17 18 19 19 20 20 20 20 20
16 15 15 15 15 15 15 15 14 14 13 12 12 11 11 11 11 11 11 12 12 13 13 12 12 12 11 11 11 12 13 14 15 15 16 17 17 18 19 19 19 20 20
Wind_Direction
272 277 282 286 292 296 298 300 299 299 298 297 296 296 295 294 294 294 295 295 296 297 298 299 300 300 301 301 301 301 301 301 302 302 302 301 300 299 299 299 299 298 296
274 279 284 288 293 295 297 299 299 298 298 297 296 295 294 293 293 294 294 295 296 297 299 299 300 300 301 301 302 302 303 303 304 304 303 302 302 302 303 303 304 303 301
277 281 285 289 291 293 296 297 297 298 298 297 295 293 292 292 292 293 294 295 297 298 299 300 301 302 302 302 303 304 305 305 306 306 304 303 304 306 307 307 307 306 305
280 283 286 289 291 292 294 295 295 296 296 295 294 293 292 292 292 293 294 296 297 299 300 301 302 302 303 304 305 305 306 307 307 306 306 306 307 308 308 307 307 306 305
281 284 286 288 290 291 292 293 293 294 293 292 292 291 291 291 292 294 296 297 299 300 301 302 303 304 305 305 306 307 307 308 308 307 306 307 307 308 307 306 305 303 302
281 283 285 288 289 289 290 291 291 291 290 290 289 290 291 292 293 295 297 299 300 301 302 303 304 305 306 307 307 308 309 309 308 308 308 308 308 307 306 305 303 302 300
282 284 286 287 288 288 288 289 289 288 288 288 289 290 291 293 295 297 298 300 301 302 303 304 305 306 307 308 309 309 309 310 309 310 311 311 310 309 308 307 306 305 302
283 284 285 286 286 286 287 287 287 287 288 288 289 291 292 294 296 297 299 300 301 302 304 305 306 307 308 309 309 308 309 311 312 314 316 316 315 315 315 315 315 313 310
283 284 284 285 285 286 286 286 286 287 288 289 290 292 293 294 296 298 299 300 302 303 304 305 307 307 308 308 307 307 310 313 316 318 320 322 323 325 326 325 324 323 320
284 285 285 285 285 286 286 287 287 288 289 290 291 292 294 295 297 298 300 301 302 303 304 305 307 308 308 306 307 310 315 318 321 324 327 329 330 331 332 332 332 333 332
285 285 285 285 286 287 287 288 289 290 291 291 293 294 295 296 297 298 299 300 301 302 304 305 307 308 307 308 312 318 322 325 329 332 334 335 336 337 338 339 342 343 342
286 286 286 286 286 287 288 289 290 291 292 293 294 295 296 297 298 298 298 299 299 301 303 305 306 307 309 315 322 327 331 335 337 337 337 338 339 340 340 340 341 343 346
287 287 287 287 288 289 290 291 292 293 294 295 296 296 296 296 296 296 296 296 297 299 299 300 302 308 317 326 333 338 342 344 344 342 339 338 337 338 340 343 345 349 350
288 289 289 290 291 292 294 294 295 295 296 296 296 295 295 295 295 294 293 293 294 291 286 286 300 320 332 341 350 358 359 357 354 352 350 350 350 348 349 351 354 358 0
293 294 294 295 295 296 296 296 296 296 296 297 297 296 295 294 292 290 289 287 278 255 229 234 327 345 358 11 22 26 24 18 14 12 13 14 16 18 20 21 20 21 23
298 298 298 298 298 297 297 296 296 296 298 299 299 299 298 295 291 284 274 247 189 158 144 96 36 37 47 53 53 48 42 36 33 32 33 34 36 38 40 42 42 43 44
302 301 300 300 300 299 299 298 299 300 302 304 307 308 306 302 291 230 161 145 138 131 112 86 76 78 77 74 68 62 55 51 48 46 45 47 48 49 50 51 51 52 53
307 305 303 303 302 302 302 303 305 309 312 318 326 335 354 63 111 122 125 124 120 111 98 93 94 93 88 81 74 67 61 57 54 53 54 54 55 54 55 55 56 56 58
315 312 311 309 307 307 309 312 318 327 341 1 29 67 90 102 109 112 112 110 106 100 100 103 103 97 91 83 75 68 64 60 59 58 57 57 57 56 56 57 58 59 60
332 332 332 333 334 339 348 4 27 47 60 71 85 95 101 104 105 104 102 100 100 102 107 109 105 99 91 82 75 69 66 64 62 61 60 59 58 57 57 57 58 59 61
2 9 18 26 36 49 63 74 78 80 85 90 94 98 101 101 99 97 96 97 101 107 111 111 107 99 90 81 75 71 69 67 64 62 60 59 58 58 57 57 57 58 59
32 40 48 57 68 76 81 83 85 87 90 93 96 98 98 96 94 94 95 98 103 109 114 112 107 100 90 83 78 75 72 68 63 61 59 57 56 56 56 56 57 57 58
48 55 63 72 77 81 84 85 85 87 90 94 95 95 94 92 91 93 94 97 103 110 114 113 108 101 93 86 81 77 73 67 62 58 56 54 54 53 53 53 54 54 55
56 62 70 76 80 83 84 84 85 87 89 91 93 93 92 91 91 92 94 97 103 110 114 113 108 102 96 90 85 79 73 66 60 56 53 52 52 51 50 49 48 48 48
57 64 71 77 80 83 84 83 83 84 85 87 89 90 91 91 92 93 96 99 103 109 113 112 109 105 100 93 86 78 70 63 57 53 51 50 48 46 44 43 42 42 42
55 62 70 77 80 82 82 82 81 81 80 81 84 88 91 92 92 95 98 101 104 107 110 111 110 108 102 94 84 75 67 61 56 52 48 46 45 44 42 41 41 41 42
Height
5798 5796 5794 5791 5788 5785 5781 5778 5775 5772 5769 5766 5763 5760 5756 5753 5749 5744 5740 5735 5729 5724 5718 5712 5706 5700 5693 5686 5680 5672 5664 5657 5651 5644 5632 5623 5615 5607 5599 5591 5584 5577 5571
5789 5787 5784 5781 5778 5775 5772 5769 5765 5762 5758 5755 5751 5747 5743 5739 5735 5731 5726 5721 5715 5710 5704 5698 5692 5686 5679 5672 5664 5657 5649 5640 5633 5627 5617 5608 5600 5592 5586 5579 5572 5566 5561
5779 5776 5774 5771 5768 5765 5761 5758 5754 5750 5746 5742 5739 5734 5730 5726 5722 5717 5712 5707 5702 5696 5691 5685 5678 5672 5665 5657 5650 5642 5634 5625 5617 5610 5602 5594 5588 5581 5576 5570 5564 5558 5553
5768 5765 5763 5760 5757 5753 5750 5746 5742 5738 5734 5729 5725 5721 5716 5712 5708 5703 5699 5694 5689 5683 5677 5671 5665 5658 5650 5643 5635 5627 5619 5612 5604 5597 5590 5584 5579 5573 5567 5562 5557 5551 5546
5756 5754 5751 5748 5744 5741 5737 5733 5729 5725 5720 5716 5711 5707 5702 5698 5694 5690 5685 5681 5675 5670 5663 5657 5651 5644 5636 5629 5621 5614 5607 5600 5593 5587 5582 5577 5571 5566 5560 5554 5550 5545 5540
5744 5741 5738 5735 5731 5727 5723 5719 5715 5711 5706 5702 5697 5693 5689 5685 5680 5676 5672 5667 5662 5656 5650 5643 5637 5631 5624 5616 5609 5602 5596 5590 5585 5580 5575 5570 5564 5558 5553 5547 5542 5538 5533
5730 5728 5725 5721 5717 5713 5709 5705 5701 5697 5692 5688 5683 5679 5676 5672 5667 5663 5658 5654 5649 5644 5637 5631 5624 5618 5612 5605 5599 5593 5587 5582 5578 5573 5568 5562 5557 5551 5546 5540 5535 5529 5525
5717 5714 5711 5707 5703 5699 5695 5691 5687 5683 5679 5675 5670 5666 5663 5659 5655 5650 5646 5641 5636 5631 5626 5620 5613 5607 5602 5596 5591 5586 5581 5577 5572 5567 5562 5556 5550 5545 5539 5534 5529 5523 5519
5704 5700 5697 5693 5689 5685 5681 5678 5674 5670 5666 5662 5658 5654 5650 5647 5643 5638 5633 5629 5624 5620 5615 5609 5604 5599 5595 5590 5585 5581 5577 5572 5567 5562 5556 5551 5546 5540 5535 5530 5524 5519 5514
5691 5687 5683 5680 5676 5672 5669 5665 5661 5657 5653 5649 5645 5641 5638 5635 5631 5626 5622 5617 5613 5609 5604 5600 5596 5592 5589 5585 5581 5578 5573 5569 5563 5558 5553 5548 5543 5538 5532 5527 5521 5516 5510
5678 5674 5671 5667 5663 5659 5656 5652 5648 5644 5640 5637 5633 5629 5626 5623 5620 5616 5612 5608 5603 5600 5596 5593 5589 5587 5584 5581 5578 5574 5570 5565 5561 5556 5552 5547 5541 5536 5530 5525 5519 5514 5509
5666 5662 5658 5654 5651 5647 5644 5640 5636 5632 5629 5625 5622 5618 5615 5611 5609 5606 5603 5599 5596 5593 5590 5587 5585 5583 5581 5578 5575 5572 5568 5564 5560 5555 5551 5545 5540 5535 5529 5524 5518 5513 5508
5654 5650 5647 5643 5640 5636 5632 5628 5625 5621 5617 5614 5611 5607 5604 5602 5599 5597 5595 5592 5589 5587 5585 5583 5582 5580 5579 5577 5573 5570 5567 5563 5559 5555 5550 5545 5539 5534 5528 5523 5518 5512 5507
5644 5640 5636 5633 5629 5625 5621 5617 5614 5610 5607 5604 5601 5598 5595 5593 5591 5589 5588 5586 5584 5583 5582 5581 5580 5579 5578 5575 5573 5570 5567 5563 5559 5554 5549 5544 5538 5533 5528 5523 5518 5512 5507
5634 5630 5626 5622 5618 5614 5611 5608 5604 5601 5598 5595 5592 5589 5587 5585 5583 5582 5581 5581 5580 5580 5580 5580 5580 5579 5577 5575 5573 5571 5568 5564 5560 5555 5550 5545 5540 5534 5529 5524 5519 5514 5509
5624 5620 5616 5612 5609 5605 5602 5599 5596 5594 5591 5588 5585 5583 5580 5579 5577 5576 5577 5577 5578 5579 5580 5580 5580 5579 5578 5576 5574 5572 5569 5566 5562 5558 5553 5548 5543 5538 5533 5528 5523 5518 5513
5616 5612 5608 5604 5601 5598 5595 5593 5590 5588 5586 5584 5581 5579 5576 5574 5573 5574 5575 5577 5578 5580 5580 5581 5580 5580 5579 5578 5577 5575 5572 5569 5565 5561 5557 5552 5547 5543 5538 5533 5528 5524 5519
5608 5604 5601 5597 5594 5592 5590 5588 5586 5585 5583 5581 5579 5577 5575 5574 5574 5574 5576 5578 5580 5581 5581 5581 5581 5581 5581 5581 5579 5577 5575 5572 5569 5565 5561 5557 5553 5548 5543 5539 5535 5530 5526
5602 5598 5595 5592 5590 5588 5587 5586 5584 5583 5581 5580 5578 5577 5576 5576 5577 5578 5580 5581 5582 5582 5583 5583 5584 5584 5584 5583 5582 5581 5579 5576 5573 5570 5566 5562 5558 5554 5550 5546 5541 5537 5533
5598 5595 5592 5590 5588 5587 5586 5585 5584 5583 5582 5581 5580 5579 5579 5580 5581 5582 5583 5583 5584 5585 5585 5586 5587 5587 5587 5587 5586 5584 5583 5580 5578 5575 5572 5568 5564 5560 5556 5552 5548 5544 5541
5597 5594 5592 5590 5589 5587 5586 5586 5585 5584 5584 5583 5583 5583 5583 5584 5585 5585 5586 5586 5587 5588 5588 5589 5590 5591 5591 5591 5590 5588 5587 5585 5583 5580 5577 5574 5570 5567 5563 5559 5556 5552 5548
5598 5596 5594 5592 5591 5590 5589 5589 5588 5588 5587 5587 5587 5588 5588 5589 5589 5589 5589 5590 5590 5591 5592 5593 5594 5595 5595 5594 5594 5592 5591 5589 5587 5585 5582 5579 5576 5573 5569 5566 5563 5559 5556
5602 5600 5598 5596 5595 5594 5593 5593 5592 5592 5592 5592 5592 5593 5593 5593 5593 5593 5593 5594 5594 5595 5596 5597 5598 5598 5598 5598 5597 5596 5595 5594 5592 5590 5587 5584 5581 5578 5575 5572 5569 5566 5563
5607 5604 5603 5601 5600 5599 5599 5598 5598 5597 5597 5597 5597 5597 5597 5597 5597 5597 5597 5598 5598 5599 5600 5600 5601 5602 5602 5602 5601 5600 5599 5598 5596 5594 5592 5589 5586 5583 5580 5577 5574 5571 5568
5612 5610 5608 5607 5606 5605 5604 5604 5603 5603 5602 5602 5602 5602 5602 5602 5602 5602 5602 5602 5602 5602 5603 5604 5604 5605 5605 5605 5605 5604 5603 5601 5600 5598 5596 5593 5590 5588 5585 5581 5578 5575 5572
5617 5615 5613 5612 5611 5610 5610 5609 5608 5608 5607 5606 5606 5606 5605 5605 5605 5605 5605 5605 5606 5606 5606 5607 5607 5608 5608 5608 5608 5607 5606 5605 5603 5602 5599 5597 5594 5591 5588 5585 5582 5579 5576